Overview Statistics Trail Chart Weather Telemetry Raw packets
 

This is the latest recevied weather packets stored in our database for station/object KF7SOJ. If no packets are shown the sender has not sent any weather packets the latest 10 day(s).

<< 7 8 9 10 11 12 13 >>
Time Temp. Humidity Pressure Rain* Wind** Luminosity Snow
1788564692 34.44° C 12% 925.1 hPa 0 mm - 314 W/m² -
1788564389 34.44° C 12% 925.3 hPa 0 mm - 333 W/m² -
1788564085 35° C 12% 925.4 hPa 0 mm - 350 W/m² -
1788563780 34.44° C 12% 925.2 hPa 0 mm - 365 W/m² -
1788563475 34.44° C 13% 925.3 hPa 0 mm - 381 W/m² -
1788563174 34.44° C 12% 925.5 hPa 0 mm - 399 W/m² -
1788562870 34.44° C 12% 925.5 hPa 0 mm - 416 W/m² -
1788562567 34.44° C 12% 925.3 hPa 0 mm - 434 W/m² -
1788562263 33.89° C 12% 925.3 hPa 0 mm - 450 W/m² -
1788561957 34.44° C 12% 925.4 hPa 0 mm - 468 W/m² -
1788561652 34.44° C 12% 925.3 hPa 0 mm - 483 W/m² -
1788561351 33.89° C 13% 925.4 hPa 0 mm - 500 W/m² -
1788561047 34.44° C 12% 925.5 hPa 0 mm - 516 W/m² -
1788560742 33.89° C 12% 925.3 hPa 0 mm - 529 W/m² -
1788560438 33.89° C 12% 925.2 hPa 0 mm - 544 W/m² -
1788560132 33.89° C 12% 925.3 hPa 0 mm - 558 W/m² -
1788559827 33.89° C 12% 925.3 hPa 0 mm - 573 W/m² -
1788559526 33.89° C 12% 925.5 hPa 0 mm - 586 W/m² -
1788559223 33.89° C 12% 925.3 hPa 0 mm - 600 W/m² -
1788558922 34.44° C 12% 925.4 hPa 0 mm - 613 W/m² -
1788558618 33.89° C 12% 925.1 hPa 0 mm - 625 W/m² -
1788558313 33.89° C 12% 925.2 hPa 0 mm - 639 W/m² -
1788558008 34.44° C 12% 925.2 hPa 0 mm - 652 W/m² -
1788557706 33.89° C 12% 925.1 hPa 0 mm - 665 W/m² -
1788557404 34.44° C 12% 925.1 hPa 0 mm - 679 W/m² -

* Rain latest hour (hover to see other rain measurements)
** Current wind speed in m/s (hover to see current wind gust speed)